Theta_e
286 280 279 275 278 281 282 279 282 283 290 288 287 285 283 282 282 285 285 287 288 284 282 282 282 282 283 284 283 284 284 283 282 282 283 283 284 285 285 285 285 285 285 288 288 288 288 288 288 288 288 287 287 287 286 286 287 287 287 288 287 288 289 290 289 290 290 290 291 291 290 289 290 290 290 290 290 290 290 290 290 290 290 290 290 291
286 281 278 279 278 280 280 282 284 288 289 287 285 283 282 283 281 285 285 287 289 284 281 283 281 280 280 281 282 283 282 281 281 281 281 282 282 284 284 284 284 285 287 287 286 286 285 285 286 286 286 288 285 286 286 285 286 286 287 286 287 288 288 289 289 288 289 289 289 289 289 289 288 288 287 287 289 289 290 290 290 289 289 289 289 291
280 278 279 280 279 282 282 282 287 287 286 287 285 283 281 281 284 285 286 287 286 284 280 283 280 279 280 281 282 282 281 282 283 283 282 282 282 283 283 283 284 285 285 285 285 285 285 285 285 285 285 285 285 285 285 285 285 285 285 286 286 287 287 287 290 288 287 288 288 288 288 288 288 289 289 288 289 289 288 288 288 289 288 288 288 288
277 276 282 282 281 282 283 287 288 287 287 285 284 283 279 283 282 279 283 284 285 284 281 281 279 280 282 283 283 284 283 283 285 284 284 284 283 282 282 282 283 283 284 284 284 284 284 284 284 284 284 284 284 285 284 284 284 285 287 285 285 286 286 286 288 291 287 289 288 288 288 288 287 286 289 287 287 287 287 287 288 288 288 288 288 287
277 281 284 282 285 287 285 286 286 285 281 281 285 283 282 283 283 282 280 283 284 284 284 282 281 281 282 280 281 283 285 285 285 285 284 285 284 283 282 282 284 283 283 284 283 283 283 283 283 283 284 283 283 284 284 284 284 285 284 284 285 285 285 286 288 287 287 287 286 286 286 286 286 285 285 285 285 285 287 286 286 286 287 288 287 287
282 285 285 285 286 287 285 283 283 285 282 282 281 281 284 283 282 282 284 283 282 281 285 283 279 279 281 282 281 282 283 282 283 282 282 282 282 282 280 280 282 284 283 282 282 282 282 282 283 283 283 283 283 283 284 284 284 283 284 284 284 285 285 285 285 286 287 284 283 284 283 282 282 282 283 282 283 283 284 284 285 285 286 287 287 287
282 287 284 285 286 285 284 283 281 283 282 281 279 282 284 283 283 283 283 284 279 278 284 286 279 276 281 279 281 281 281 282 283 282 282 282 283 283 282 282 280 280 281 282 281 282 282 282 282 282 282 282 282 283 283 283 284 283 284 283 283 284 285 285 285 285 288 284 283 282 283 283 282 281 283 284 284 284 285 285 283 284 284 285 285 286
285 284 285 285 284 283 283 283 283 282 282 277 282 285 285 284 283 283 282 281 279 283 283 283 282 278 278 281 282 282 280 281 281 282 283 283 283 283 283 282 281 280 280 281 281 281 282 281 282 282 282 282 282 282 283 283 283 283 283 283 282 283 285 283 284 284 286 286 283 282 282 286 282 282 282 283 283 284 286 283 283 284 283 284 284 284
284 283 283 283 283 282 280 280 282 282 282 281 285 285 282 281 281 281 282 281 281 280 276 280 280 279 278 279 279 280 278 279 280 281 282 282 282 282 282 281 281 281 281 281 281 281 281 281 282 283 282 282 282 282 282 283 282 282 282 283 282 281 282 282 283 285 282 287 285 282 282 281 283 285 285 284 283 283 283 281 282 282 283 283 283 283
284 283 283 283 283 280 283 284 286 285 282 284 286 286 284 285 283 281 280 280 277 275 273 277 277 272 275 278 278 278 278 278 279 280 280 281 281 281 281 281 281 280 281 281 281 280 281 281 281 281 282 281 281 281 283 282 282 282 281 282 282 280 281 282 281 282 281 282 284 282 281 281 281 282 282 281 281 281 281 281 281 281 282 282 282 283
284 290 288 283 282 284 286 286 287 287 287 289 288 286 284 283 281 279 278 278 277 270 273 277 275 275 270 276 277 276 277 279 279 278 279 280 281 281 281 280 281 281 280 280 280 280 280 281 281 280 280 281 280 280 280 280 280 280 281 280 280 280 280 281 280 281 281 281 281 281 281 281 280 281 281 280 280 280 280 280 281 281 281 281 282 282
284 284 282 284 287 288 289 285 287 288 287 287 283 283 283 281 282 279 274 276 272 265 271 274 274 274 269 274 278 280 279 279 281 279 280 281 281 282 281 281 281 280 279 279 279 280 280 280 280 280 280 280 280 279 279 279 279 280 280 280 279 280 280 280 281 280 280 281 280 281 281 281 281 281 281 280 280 280 280 280 280 281 280 280 281 281
282 281 283 285 288 284 283 285 284 286 286 285 282 280 276 270 275 273 269 271 261 265 273 274 274 272 273 275 276 280 282 280 280 282 282 282 282 282 282 281 281 280 280 279 279 279 280 280 280 279 279 279 279 279 279 279 278 279 279 279 279 280 280 280 279 279 279 280 280 280 280 280 283 282 280 280 280 280 280 280 280 280 280 280 281 281
281 285 282 283 286 285 284 282 282 283 283 282 279 276 272 269 267 269 262 260 260 269 272 274 274 272 274 276 276 278 282 284 282 282 282 283 283 283 283 282 281 280 280 280 279 279 279 279 280 279 279 278 278 278 279 278 280 279 279 278 279 281 280 279 280 279 280 280 280 280 280 280 280 280 281 281 281 281 281 281 280 280 280 280 280 280
275 275 279 280 279 284 282 281 281 282 281 280 281 279 274 267 265 265 259 264 265 266 270 272 270 264 271 276 279 278 280 281 282 282 282 282 281 282 281 280 279 279 279 279 279 280 280 280 280 280 280 279 278 278 279 278 278 277 278 278 279 279 280 279 279 279 280 280 280 280 280 280 280 280 281 281 283 282 281 281 280 280 280 280 280 280
273 274 280 283 282 280 279 281 282 280 280 279 278 279 275 270 271 265 263 257 258 264 267 269 268 270 274 277 279 278 278 280 282 282 283 282 282 281 281 281 281 281 281 280 279 280 280 280 279 279 279 279 279 279 279 278 278 278 279 278 278 279 280 279 281 280 280 280 280 279 279 280 281 284 283 282 282 281 280 280 280 280 280 280 280 281
274 274 279 280 281 279 279 280 279 280 274 279 276 271 276 276 272 264 263 265 265 262 264 264 272 274 276 278 276 278 280 280 280 281 281 281 282 280 281 282 281 281 281 280 280 280 280 280 279 279 279 280 280 279 279 280 279 279 280 279 279 279 279 279 280 280 279 279 278 279 279 279 279 279 279 280 280 280 281 280 280 280 280 280 280 281
267 272 276 277 277 279 278 278 279 279 280 277 275 276 277 275 268 266 263 256 256 261 263 265 268 271 271 270 276 278 278 279 279 280 280 281 281 281 282 283 283 282 282 282 280 280 280 280 280 280 280 280 280 280 280 280 280 279 279 279 279 279 279 280 279 279 279 279 279 280 280 280 280 280 280 280 280 280 280 280 280 280 280 280 280 281
273 269 275 275 275 276 278 279 278 280 280 279 279 277 278 267 268 266 263 260 260 259 256 263 268 268 272 274 275 275 277 279 280 280 279 281 282 282 283 283 283 282 281 281 281 281 281 280 280 280 280 280 280 281 280 281 280 279 278 279 279 279 280 280 280 279 280 280 280 281 281 281 281 280 280 280 281 280 280 280 280 280 280 280 280 280
271 266 271 273 276 276 276 276 266 274 279 277 276 275 272 271 266 262 264 261 259 258 257 264 262 266 273 274 275 277 278 279 280 279 280 282 283 284 284 284 284 283 282 282 282 282 282 281 281 280 280 280 280 280 280 280 280 279 280 280 280 280 280 280 280 280 280 281 280 281 280 280 280 280 280 280 280 280 280 280 280 280 280 280 280 280
271 268 263 273 275 275 272 274 272 274 272 274 274 271 272 269 272 270 263 266 266 256 255 257 259 263 270 274 275 277 277 279 280 281 282 282 283 284 284 284 284 283 283 283 283 283 283 282 282 281 280 280 280 279 280 280 280 280 280 280 280 280 280 280 281 280 280 280 280 280 279 280 280 280 280 279 279 279 279 280 280 280 280 280 279 280
264 264 266 266 270 270 271 276 276 274 274 273 273 272 272 269 265 264 262 266 260 264 256 255 262 265 272 276 276 276 277 278 279 280 281 282 282 282 283 284 284 284 284 284 284 283 283 283 282 282 281 280 279 280 280 280 280 280 280 281 281 280 280 280 281 281 281 280 280 279 280 280 280 280 280 279 279 279 279 279 280 280 280 279 280 279
273 266 267 266 267 271 276 276 273 276 276 276 274 273 269 267 260 252 261 262 259 263 262 260 260 260 271 275 276 277 277 277 278 279 281 282 282 282 283 283 284 284 285 285 284 284 283 283 283 282 282 281 281 281 281 281 280 281 281 281 281 280 281 281 281 281 281 280 280 280 280 280 280 280 279 279 279 279 279 280 280 280 279 279 280 280
279 260 262 262 262 269 272 270 270 266 276 275 273 273 273 271 272 264 266 266 262 260 262 258 258 265 273 275 276 277 276 277 277 277 279 281 281 281 281 281 282 282 283 284 284 283 283 283 282 281 282 282 282 281 281 282 281 281 281 281 281 281 281 281 281 281 280 280 280 280 279 279 280 279 279 279 279 279 279 280 280 280 280 280 280 279
267 264 261 254 255 257 261 263 268 267 267 263 271 272 272 273 270 264 261 256 264 261 260 259 261 263 276 276 274 276 276 277 277 277 278 279 280 281 281 281 280 280 280 281 281 282 282 282 282 283 283 282 283 282 282 282 282 282 282 282 281 281 282 281 281 280 280 279 279 279 279 279 279 279 279 279 279 279 279 279 279 280 280 279 279 279
270 265 264 259 257 259 261 257 261 260 263 267 270 271 272 271 269 269 268 257 261 263 264 262 260 269 273 274 274 273 275 277 278 277 277 277 279 280 280 280 280 280 280 280 280 280 280 281 282 282 283 283 283 283 283 283 283 282 282 282 282 281 281 281 281 280 279 279 279 279 279 279 279 279 279 279 279 279 279 279 279 279 279 279 279 279
263 263 258 254 252 256 259 262 266 275 268 267 267 270 271 270 270 269 264 260 265 259 262 265 266 271 275 275 274 274 274 275 277 279 279 279 279 279 279 280 280 280 280 280 280 280 279 280 280 281 282 283 283 283 283 283 283 283 282 282 282 282 281 281 280 280 279 279 279 278 279 279 279 279 279 279 279 279 279 279 279 279 279 279 279 279
258 263 266 263 260 263 267 266 270 274 268 267 268 269 270 270 268 266 265 266 266 264 263 265 267 269 274 275 274 274 275 276 276 277 278 279 279 280 280 280 283 281 281 280 280 280 281 281 282 282 282 282 283 283 283 283 283 282 282 282 283 282 281 281 280 279 279 279 278 278 279 279 279 279 279 279 279 279 279 279 279 279 279 279 278 278
263 266 266 265 260 266 268 268 269 268 269 269 268 268 268 269 269 265 264 267 267 264 268 268 267 269 274 276 277 277 277 277 277 278 278 278 279 279 279 279 280 280 281 280 281 281 281 282 283 283 283 283 282 282 282 282 282 282 282 281 281 281 281 281 279 279 279 279 278 279 280 279 279 279 279 279 279 279 279 279 279 279 279 279 279 279
265 265 266 267 267 265 265 267 267 267 267 267 267 270 271 268 270 270 266 266 268 268 268 269 269 271 274 276 277 278 278 277 278 277 278 278 278 278 278 278 279 280 280 281 282 282 282 282 281 282 282 282 282 282 282 282 282 282 282 282 281 281 281 279 279 278 278 278 279 279 279 279 279 279 279 279 279 279 279 279 279 279 278 279 279 279
272 267 274 267 263 264 265 269 267 267 266 265 269 269 270 270 269 270 268 267 266 268 269 270 270 272 277 277 278 278 276 276 277 277 278 278 278 278 278 278 279 279 280 281 281 281 281 281 281 281 281 281 282 282 282 282 282 282 281 281 281 281 281 279 279 278 278 279 279 279 279 278 279 279 279 279 279 279 279 279 279 279 279 279 279 279
269 264 261 260 266 266 265 264 265 264 264 264 267 268 267 267 266 267 269 271 270 270 265 268 267 271 276 275 276 276 276 276 278 278 278 279 278 278 278 279 279 280 280 280 280 280 280 280 281 281 281 282 282 282 282 282 282 281 282 282 281 281 280 279 278 278 278 279 279 279 278 279 279 278 279 279 279 279 279 279 279 278 278 279 279 279
266 259 262 260 263 260 265 265 265 264 264 267 267 268 269 270 271 270 273 273 275 272 269 266 272 275 276 278 276 276 276 277 277 278 278 278 279 278 278 279 280 280 280 280 280 281 281 281 282 282 282 281 282 282 283 282 281 281 282 281 281 279 279 279 279 278 278 278 278 278 279 279 279 279 279 279 279 279 279 278 278 278 278 279 279 279
270 265 262 266 267 264 260 264 263 265 265 266 273 273 272 271 271 272 272 273 275 276 275 276 278 276 276 276 276 278 278 279 280 279 279 279 280 280 280 280 280 280 280 280 280 280 281 282 282 282 282 282 282 282 282 281 281 281 281 280 279 279 279 278 278 278 278 278 278 279 279 279 278 278 279 279 279 279 278 278 278 279 279 279 279 279
267 262 262 262 264 264 266 265 269 263 265 273 274 274 274 274 274 275 275 275 275 276 277 276 277 277 278 277 278 279 279 280 280 279 279 279 279 280 280 281 281 281 281 281 281 282 282 282 282 281 281 281 281 281 280 281 281 279 279 279 278 278 278 278 278 278 278 278 279 279 279 279 278 278 279 279 279 278 278 279 279 279 279 279 279 278
260 262 265 264 258 260 262 265 267 269 271 274 274 276 276 274 274 274 274 276 276 276 277 276 278 278 278 279 279 280 279 279 279 279 279 280 280 280 279 280 281 281 281 282 282 282 282 282 282 281 281 281 280 281 280 280 280 279 279 279 278 278 278 278 278 278 278 278 279 279 279 278 278 278 278 279 279 278 279 279 279 279 279 279 278 278
270 263 263 264 262 265 260 259 271 271 274 274 273 274 274 274 273 274 272 274 275 277 277 277 278 278 278 279 279 279 277 277 277 280 279 280 280 280 281 281 282 282 282 282 282 283 283 282 281 281 280 280 280 280 280 280 279 278 278 278 279 278 278 278 278 278 278 278 278 279 279 279 278 278 278 279 278 278 279 279 279 279 279 277 277 276
276 269 265 266 266 264 265 263 264 263 265 269 273 276 277 275 276 274 274 275 277 274 278 278 277 278 278 278 278 276 277 276 278 279 279 279 280 280 280 281 281 281 281 282 281 281 280 280 280 280 279 279 280 280 280 279 278 278 278 278 278 278 278 277 278 278 278 278 279 279 279 279 278 278 278 278 278 278 279 279 278 278 278 276 275 275
274 273 269 267 267 264 260 262 261 264 270 272 275 277 277 276 276 272 272 271 277 275 277 278 278 278 278 278 278 277 277 275 277 280 280 279 279 279 279 280 280 281 281 280 280 280 280 280 279 279 279 278 278 280 279 278 277 277 278 278 278 277 277 277 278 279 279 279 279 279 279 279 278 278 278 278 278 278 278 278 277 277 276 275 275 274
269 266 265 264 261 258 256 261 264 261 267 274 273 275 276 274 277 275 270 269 279 277 276 277 278 278 278 277 276 277 277 276 278 281 280 280 279 278 278 280 280 279 278 278 278 279 279 279 278 279 280 280 281 280 279 278 278 277 278 278 277 277 277 278 279 279 279 279 279 279 278 278 278 278 278 278 278 278 277 277 276 275 274 274 274 273
267 267 266 266 259 264 267 260 260 268 273 274 274 275 275 275 277 270 268 275 277 277 276 277 278 279 278 277 277 277 278 281 284 284 281 280 280 281 280 278 278 278 279 279 280 282 280 280 279 279 280 280 280 280 279 278 277 278 278 277 277 277 278 279 279 278 279 278 278 278 278 278 278 278 278 278 277 276 276 275 274 274 273 273 273 272
265 266 268 264 261 262 261 264 266 268 274 275 275 277 276 276 266 267 279 278 278 277 277 278 278 278 277 279 278 279 282 281 281 280 280 281 280 280 279 280 279 279 279 279 280 279 279 279 279 279 279 280 280 279 278 277 277 277 277 277 277 278 279 278 278 278 278 278 278 278 278 278 278 277 277 276 275 274 274 274 273 273 272 272 272 271
266 267 264 265 263 263 263 260 265 268 274 277 277 276 276 272 276 277 276 278 276 277 277 277 277 279 277 278 279 280 280 280 280 280 280 280 280 280 280 280 280 280 280 280 281 280 279 279 279 279 279 280 279 279 278 277 276 277 277 276 277 278 278 278 278 277 277 277 277 277 277 276 275 275 274 274 274 273 272 272 271 271 271 271 270 270
269 269 261 262 267 262 261 266 267 274 275 279 280 276 275 280 278 276 279 282 277 276 277 277 277 278 278 278 279 279 279 279 279 280 280 280 280 280 279 279 279 279 279 279 279 279 278 278 279 279 279 279 279 279 278 277 277 276 276 276 278 277 277 276 276 275 275 275 275 275 275 274 273 273 272 272 272 271 271 270 270 269 270 269 269 268
274 273 271 272 270 271 270 272 277 274 277 280 281 283 279 280 280 278 279 279 279 280 277 277 280 280 279 279 279 279 279 279 280 280 280 280 280 280 280 280 280 280 280 279 280 280 278 278 278 278 278 279 279 279 278 277 276 275 275 277 277 276 275 275 273 273 273 274 274 273 272 272 272 272 271 271 271 270 269 268 268 268 268 268 267 267
275 275 272 275 273 274 277 279 281 278 277 278 280 281 281 282 280 278 279 279 280 280 280 281 281 281 280 279 279 279 280 280 280 280 280 280 279 280 279 279 279 279 279 278 278 279 278 278 277 277 277 279 279 279 278 277 276 274 276 277 276 276 274 273 271 271 271 272 272 271 271 270 271 271 270 270 269 268 268 267 267 267 267 266 266 266
270 271 273 272 271 273 274 277 277 279 280 279 280 281 282 281 281 282 280 280 281 282 282 281 281 281 281 280 279 280 280 281 280 280 280 279 279 279 279 279 279 279 279 279 279 278 278 276 277 277 277 278 279 278 278 276 276 276 276 276 276 274 272 270 269 270 270 270 270 270 270 270 269 270 270 269 268 268 267 267 266 266 266 266 265 265
275 272 274 274 272 273 277 281 279 277 277 278 278 279 280 280 280 280 281 282 282 282 281 281 281 280 280 279 279 279 280 280 279 279 279 279 280 279 279 279 279 279 279 279 279 277 275 276 276 277 277 278 278 278 277 276 276 275 275 274 273 271 269 269 269 270 270 270 270 269 269 269 269 269 268 267 267 266 266 267 267 266 265 265 265 266
274 276 271 271 274 276 278 279 281 281 281 281 282 281 281 282 282 280 280 280 279 279 280 280 279 280 279 280 280 279 278 279 279 279 279 279 279 279 279 279 279 279 279 278 279 276 277 277 277 277 277 277 278 277 276 275 275 275 274 273 271 269 268 270 269 270 269 269 269 269 269 268 268 267 266 266 266 267 267 266 265 266 266 268 269 269
274 274 273 272 273 274 275 279 277 274 279 282 280 279 278 279 279 279 279 278 279 279 279 279 280 279 278 278 278 278 278 279 279 279 278 279 279 279 279 278 278 278 278 278 278 276 276 276 277 277 276 277 277 276 276 275 275 274 272 271 271 270 269 269 269 268 268 269 268 268 268 267 267 266 265 265 265 265 266 268 270 270 268 268 271 272
277 277 276 275 272 274 281 281 280 281 280 282 283 279 278 278 277 277 278 279 280 280 279 279 279 279 279 280 279 278 278 278 279 279 278 278 279 279 279 278 278 278 279 278 276 276 276 277 277 276 275 276 276 275 274 274 274 273 272 272 271 270 269 268 268 268 267 267 266 267 266 266 265 265 265 265 265 264 264 264 266 271 273 272 271 272
Wind_Speed
1 5 4 2 1 1 3 3 3 1 13 14 14 13 12 16 11 9 11 11 12 20 13 9 13 10 8 6 5 5 5 5 5 5 5 4 5 5 5 4 3 3 3 3 5 5 6 6 6 6 5 5 4 6 7 8 9 10 9 8 11 8 8 7 7 7 7 7 6 7 9 8 7 7 7 7 7 8 7 8 8 9 8 9 9 9
5 7 2 1 2 4 2 2 1 9 16 16 13 17 10 15 10 4 4 2 4 11 7 6 12 10 6 5 4 4 6 5 3 3 3 3 3 2 3 2 2 2 1 4 5 6 5 5 5 5 5 5 9 9 8 9 9 8 8 10 9 8 9 9 8 7 7 7 6 5 6 5 5 6 7 7 7 7 7 8 8 8 8 8 9 8
5 4 4 4 3 2 2 0 5 18 19 14 13 13 14 9 11 10 10 8 7 21 6 6 11 7 6 4 3 3 3 2 2 2 2 2 1 1 1 1 1 2 3 4 4 4 5 6 6 5 5 6 5 6 8 7 7 9 9 9 8 8 8 8 8 7 7 6 6 5 4 5 4 5 5 5 5 5 6 7 7 7 7 8 8 8
5 3 8 4 2 4 5 4 14 15 15 14 9 14 10 9 8 6 7 6 6 5 11 7 11 6 4 3 3 2 2 2 2 2 2 2 1 2 2 2 2 4 4 5 5 5 6 5 5 5 6 6 5 6 6 8 8 7 8 7 8 8 8 8 9 7 7 7 6 5 4 4 5 4 4 4 5 6 7 8 7 7 7 7 7 7
3 5 6 1 5 12 13 9 16 14 9 4 11 13 12 8 6 10 6 13 19 15 11 10 9 4 3 2 1 2 0 1 1 2 1 1 1 2 2 3 3 4 4 4 4 4 4 5 5 4 4 4 5 6 6 6 6 5 6 6 6 6 7 7 8 8 6 6 6 6 5 4 3 3 5 5 7 7 6 6 7 7 6 6 6 6
13 10 2 7 8 14 12 9 8 16 11 7 4 8 14 16 18 18 16 15 7 6 4 5 4 2 0 2 2 2 2 1 0 1 2 1 2 2 2 2 2 2 2 2 3 3 3 3 4 4 5 5 5 6 5 4 4 5 6 6 7 6 6 7 6 6 5 6 6 6 7 8 7 7 7 8 7 7 7 7 5 6 6 6 6 6
2 9 5 6 12 8 7 6 4 3 12 12 1 2 19 18 20 17 13 11 7 10 2 1 1 2 0 3 3 3 3 4 1 1 4 3 3 2 3 3 3 3 2 2 2 3 3 4 4 4 4 4 4 4 4 4 5 6 6 6 5 5 6 6 6 7 5 7 6 6 5 4 4 4 4 3 4 4 5 5 5 5 5 4 5 5
8 13 9 10 10 8 5 9 6 3 13 5 2 9 17 20 16 10 6 5 7 4 6 5 3 4 2 3 2 3 3 5 5 6 5 4 4 5 5 4 4 3 3 3 3 3 2 2 2 3 3 3 3 4 4 5 5 6 6 5 6 5 5 5 6 7 6 6 5 6 5 3 4 3 3 4 4 3 3 5 5 5 5 5 4 4
5 6 10 9 10 10 6 3 3 4 8 8 11 8 8 6 6 6 9 10 7 7 4 4 8 3 2 1 2 3 4 7 10 7 6 5 6 6 5 5 4 4 4 4 3 2 2 2 3 3 3 3 3 3 4 4 3 4 4 4 4 5 4 5 5 4 5 4 4 4 4 5 4 3 4 4 3 4 4 5 5 5 5 5 5 4
4 6 6 4 9 7 3 4 6 9 18 3 12 8 3 7 10 7 6 7 3 6 2 5 5 1 2 0 3 1 3 11 8 8 8 7 7 6 6 5 5 4 4 4 4 3 3 3 3 3 3 4 2 3 3 3 3 4 4 4 4 4 4 3 4 4 4 3 3 4 3 3 5 4 5 4 5 5 4 5 6 5 6 6 6 6
1 1 4 6 6 2 9 11 11 13 17 15 10 11 8 8 5 3 5 3 5 4 0 1 2 1 1 7 10 10 9 5 5 3 4 4 6 7 6 6 5 5 5 4 4 4 4 4 4 3 4 3 3 3 2 3 3 3 3 3 4 4 3 3 3 3 3 2 1 2 2 2 3 4 4 5 6 5 5 6 6 6 6 6 6 6
12 10 8 3 4 2 12 15 9 7 9 7 5 5 9 6 4 6 5 6 4 2 4 1 1 2 2 2 4 8 2 4 9 8 9 10 9 8 6 6 6 5 4 3 3 4 4 4 4 3 4 3 3 3 3 3 3 3 2 2 3 5 4 3 3 3 3 2 2 1 1 3 3 3 3 4 5 6 5 5 7 6 6 6 6 5
15 11 1 2 3 11 5 15 1 4 4 6 6 5 6 1 2 1 6 1 1 4 1 4 4 2 5 4 2 7 10 5 6 7 11 9 7 8 7 7 5 4 3 3 4 4 4 4 5 4 4 4 4 3 4 4 3 3 3 1 2 5 4 4 3 3 4 3 4 3 3 3 3 3 3 4 5 5 5 6 6 7 7 7 7 7
8 9 17 10 3 9 3 6 5 7 2 2 2 4 6 5 4 3 2 1 4 5 3 3 2 1 3 6 1 4 8 7 7 7 5 9 11 10 8 6 4 4 4 5 4 4 5 5 5 4 5 5 5 5 5 5 4 4 4 4 3 6 5 4 4 4 4 5 5 4 3 4 3 4 4 4 4 6 5 5 6 6 7 7 7 8
6 6 10 10 5 7 6 6 1 3 2 3 0 2 4 5 4 4 4 2 4 3 2 3 1 3 0 2 2 6 4 4 3 3 2 2 3 2 2 2 3 4 5 5 5 6 6 6 6 6 5 5 6 6 6 5 5 4 4 4 5 6 6 4 5 4 5 6 5 4 4 4 3 4 5 5 4 5 6 6 6 7 6 7 8 7
5 4 2 2 1 2 4 3 1 2 5 0 2 3 5 0 3 5 5 3 1 1 1 0 3 2 4 1 3 2 1 1 0 2 1 3 4 3 3 4 5 6 6 5 5 7 7 7 6 6 6 7 6 7 6 6 5 4 5 5 5 6 7 6 5 5 5 6 5 5 5 6 5 4 4 5 5 6 5 6 6 8 7 8 7 7
1 7 4 5 2 3 4 1 1 1 1 2 2 2 1 1 9 7 2 3 1 3 1 0 7 5 7 4 3 2 0 2 0 2 2 5 4 3 5 6 6 7 6 6 7 7 8 6 6 7 7 7 6 6 7 7 6 6 6 5 7 7 6 6 6 7 6 6 5 7 6 6 6 6 6 7 7 8 7 6 7 7 8 8 8 8
4 3 2 5 4 1 1 1 3 4 0 3 5 5 3 3 7 3 3 3 4 2 2 2 2 7 4 2 2 1 2 5 4 4 5 5 5 6 9 8 9 9 9 7 5 5 7 7 7 7 7 7 8 8 7 8 6 5 6 6 7 7 8 8 6 7 6 6 6 7 8 7 7 7 7 6 7 7 7 7 7 7 7 8 8 7
2 5 3 0 3 6 4 3 3 3 5 5 6 3 1 0 1 3 5 1 1 0 3 6 3 6 5 5 1 4 6 9 9 6 5 8 8 10 9 9 8 6 5 7 8 8 8 9 10 9 9 8 7 7 8 8 6 5 5 7 7 10 10 9 7 5 6 6 6 6 8 8 8 7 7 7 7 6 7 9 9 9 9 8 8 8
1 4 1 2 1 2 3 5 4 8 8 4 2 3 1 5 2 3 0 2 5 0 1 1 3 1 7 4 6 6 9 9 7 5 10 11 10 10 9 9 9 8 8 8 8 9 10 10 9 9 9 9 10 9 8 8 6 7 9 7 8 7 8 8 9 8 8 9 7 8 7 8 8 8 8 8 7 8 8 9 9 10 9 11 8 8
1 1 3 6 3 2 5 5 2 1 4 7 7 5 4 2 1 5 2 3 1 5 2 0 3 4 4 4 3 6 4 5 5 10 10 10 10 9 8 8 8 8 8 9 10 10 10 10 9 9 9 9 7 6 6 7 8 9 6 7 8 9 9 8 10 7 9 8 8 7 9 10 9 9 7 7 7 8 9 9 9 10 10 8 9 9
3 5 3 3 8 6 2 1 0 2 1 1 1 3 3 1 1 0 1 1 2 2 1 2 2 8 8 2 4 4 4 4 4 6 8 7 8 7 8 8 9 8 9 9 9 8 9 9 9 9 7 6 6 8 9 9 7 8 9 10 8 7 8 9 10 9 9 7 7 8 9 10 8 8 7 7 8 9 10 10 10 10 9 9 11 8
2 2 7 5 1 1 0 1 2 0 2 1 1 1 1 1 4 3 2 2 2 1 3 1 1 3 2 2 3 5 4 5 4 4 8 8 8 8 9 8 7 8 9 9 9 8 8 8 8 7 7 8 9 10 9 8 8 9 9 8 8 7 11 9 10 9 7 7 7 9 9 8 8 8 8 8 9 9 11 10 10 9 10 10 10 9
5 6 4 1 6 5 3 1 0 6 1 0 3 2 2 2 1 1 1 3 5 0 0 1 0 4 2 1 3 4 4 4 4 4 7 7 7 7 7 7 8 7 9 8 7 7 8 7 5 6 9 10 9 9 10 9 8 8 8 9 8 9 12 10 9 8 7 7 9 9 8 9 9 8 9 9 10 11 11 11 10 9 9 10 9 10
1 2 3 1 2 2 2 2 2 1 3 2 0 2 1 2 6 2 5 0 4 4 2 3 1 2 2 1 3 2 3 4 4 4 5 7 7 6 7 7 6 7 7 8 8 8 7 7 8 9 8 9 10 9 9 9 9 9 10 8 9 10 10 9 8 7 7 7 9 9 9 10 9 9 10 11 10 11 12 11 10 9 9 10 10 10
6 0 2 2 2 2 1 2 2 2 1 2 0 2 2 3 1 3 1 2 1 0 1 1 4 9 7 3 5 4 4 5 4 3 3 5 7 8 7 7 7 5 8 7 7 7 9 8 7 8 9 9 9 10 10 9 9 9 9 10 9 9 9 9 7 6 7 7 7 9 10 10 9 10 10 11 10 12 12 10 9 10 9 9 11 10
5 2 4 2 2 3 3 2 2 0 1 0 1 0 1 2 2 3 3 2 2 2 3 7 4 8 16 7 3 4 4 3 7 7 6 6 5 6 6 7 7 7 7 7 7 7 5 7 10 9 9 9 9 9 9 9 10 10 9 10 10 8 8 9 7 7 6 7 7 8 9 10 11 10 9 9 10 10 9 10 10 9 10 9 9 10
4 5 1 5 6 3 2 2 1 1 2 2 1 1 0 2 3 2 1 1 5 3 7 3 3 1 10 7 6 6 6 6 6 6 7 6 6 6 6 6 7 6 6 5 6 7 8 9 9 9 9 8 9 8 8 8 8 9 9 11 10 9 7 7 6 6 7 7 7 8 10 10 9 8 9 9 9 9 10 10 10 10 9 8 9 10
2 2 2 4 7 5 5 6 2 1 2 3 4 3 2 4 4 4 4 5 6 3 9 2 2 2 11 10 10 10 9 9 11 10 7 6 9 8 6 7 8 9 8 7 8 7 7 8 8 8 8 8 7 9 9 9 9 8 8 8 9 8 10 8 5 7 7 7 8 10 9 8 7 7 9 10 9 10 10 10 10 9 9 8 9 9
4 1 3 2 4 2 2 2 4 5 1 1 5 7 6 5 7 7 5 4 7 7 5 4 5 12 17 15 13 14 7 5 8 5 6 7 8 7 6 7 8 9 9 9 9 8 7 7 7 7 8 9 9 9 9 9 9 8 8 9 8 7 10 5 6 7 7 8 9 9 8 8 8 9 9 9 10 10 10 10 9 9 9 10 10 10
0 1 2 2 2 3 1 2 4 0 0 5 5 5 5 5 4 5 1 1 1 7 9 8 9 16 10 4 10 6 3 3 4 5 7 7 7 8 8 8 9 9 9 9 8 9 7 7 7 7 8 9 9 9 8 8 9 7 8 8 8 8 8 4 6 6 6 9 8 8 8 8 9 8 9 10 9 9 10 10 9 9 10 10 10 11
6 0 2 1 1 1 0 0 1 1 1 4 12 9 7 5 5 4 6 7 6 7 2 1 2 9 8 2 3 4 3 4 6 7 7 7 6 6 7 9 10 9 9 9 9 7 7 7 8 8 8 8 8 8 7 8 7 6 8 8 8 8 5 5 5 6 7 8 8 8 9 9 9 9 10 9 10 10 9 9 9 9 10 10 11 11
2 2 2 3 2 1 1 0 4 7 2 2 2 4 9 6 3 1 4 4 9 7 5 3 10 6 3 0 3 3 3 6 7 7 8 8 7 6 8 10 10 9 9 8 8 7 7 8 8 9 8 7 8 7 8 7 6 8 9 7 8 5 5 6 6 7 7 8 8 9 9 8 8 9 9 9 9 9 8 9 9 10 10 12 11 10
1 2 2 1 1 3 6 6 1 1 3 1 2 2 9 8 13 8 6 11 11 11 8 6 9 3 2 3 5 9 8 10 8 5 4 5 8 10 9 8 9 9 9 8 8 8 10 9 8 8 8 8 8 8 8 6 7 8 6 6 6 6 7 6 7 6 8 8 8 9 8 8 8 9 10 9 9 8 8 8 10 10 9 10 10 10
2 3 2 0 1 4 8 4 2 2 2 2 0 2 2 1 8 12 9 6 7 13 12 12 14 11 11 6 7 10 11 12 7 8 10 8 8 9 11 11 10 9 9 9 9 9 9 9 8 8 8 8 8 7 5 7 7 5 5 5 6 6 6 6 7 7 7 8 9 8 8 8 8 9 9 9 8 8 8 9 10 10 10 9 10 10
1 3 2 2 1 1 4 7 3 1 2 2 1 1 2 2 2 1 8 12 14 15 16 14 17 12 9 10 10 10 9 11 10 7 10 12 9 10 8 10 10 9 8 9 9 9 8 8 9 8 8 6 5 7 6 8 6 4 6 5 6 6 6 6 6 8 8 9 9 8 8 8 8 8 8 8 8 8 10 10 10 11 10 9 10 9
7 3 1 0 0 2 1 1 8 7 4 0 0 1 4 3 4 2 2 6 6 9 12 9 10 10 10 10 11 8 4 4 8 10 5 9 7 8 12 11 11 10 10 10 9 10 8 6 6 7 5 6 6 7 8 7 4 4 5 6 6 5 6 6 7 9 9 9 9 8 7 7 7 8 9 8 9 10 10 10 11 10 8 10 10 11
0 1 1 1 1 3 0 5 6 3 0 4 2 1 2 1 2 1 1 9 4 4 8 9 7 9 9 7 6 4 2 3 10 7 2 5 7 8 8 9 9 9 9 9 7 5 6 7 5 6 5 6 7 9 8 5 5 5 5 7 6 6 7 6 8 8 8 8 8 7 7 7 7 8 9 9 10 11 10 9 8 9 8 10 12 12
4 5 3 3 2 2 1 1 2 1 3 4 1 2 1 2 3 1 2 7 5 4 9 10 9 8 7 6 6 1 3 6 11 8 6 6 6 6 7 8 9 9 8 7 6 8 8 8 5 6 6 6 8 10 5 4 3 4 6 6 7 5 6 8 9 8 8 8 7 7 7 7 7 8 9 10 10 9 10 9 10 10 9 10 10 11
6 4 4 3 1 1 3 1 3 5 3 1 4 2 2 3 3 1 5 5 5 4 7 8 8 7 7 7 3 2 4 9 12 8 3 4 3 4 4 7 7 7 6 6 6 8 8 6 4 6 7 8 9 7 5 4 4 5 7 8 5 6 8 9 9 7 7 7 7 6 6 6 7 8 8 9 10 9 9 9 10 10 10 10 10 11
3 2 4 2 2 2 2 3 4 8 6 4 4 3 2 2 1 2 2 4 3 5 7 8 8 8 6 4 6 6 8 11 12 12 6 6 7 9 6 5 7 6 8 8 9 7 6 6 5 8 9 9 8 6 5 4 4 7 7 7 6 8 9 8 6 6 7 6 6 6 7 6 6 8 8 7 8 9 9 9 10 10 10 11 11 11
0 2 0 4 2 2 4 2 5 8 8 4 2 4 2 1 0 3 7 2 4 4 6 9 9 8 5 7 7 9 9 8 8 8 9 9 8 9 8 9 8 7 7 7 8 6 6 5 7 8 9 9 7 5 4 3 4 7 7 6 8 10 8 6 6 6 6 6 6 6 7 6 6 5 6 7 8 10 11 10 9 9 10 9 10 13
4 2 3 3 2 2 2 2 4 2 1 5 9 3 0 3 8 4 0 2 5 2 4 6 8 9 5 7 8 10 10 10 10 10 10 10 9 10 11 10 9 9 10 9 10 8 5 6 7 9 9 9 6 5 4 3 5 7 6 7 10 8 6 6 5 5 6 6 6 7 7 5 6 7 6 8 8 9 10 10 9 10 10 11 11 12
3 1 2 3 7 1 2 2 3 3 4 9 10 4 7 12 3 3 1 7 2 4 4 4 5 8 6 7 10 9 9 10 11 10 10 9 9 9 8 8 8 7 8 8 7 8 5 6 7 9 9 9 6 5 5 3 5 6 6 10 9 6 5 4 5 4 5 5 6 6 6 5 6 7 7 8 8 8 9 10 9 9 9 9 9 9
9 5 6 1 4 6 8 10 8 3 5 11 11 8 5 8 5 2 1 4 6 7 4 3 8 6 6 8 9 9 10 9 12 12 10 11 9 9 10 10 9 9 9 9 10 8 5 7 9 8 9 10 8 7 6 3 4 6 8 9 5 4 4 4 4 4 6 6 6 6 6 7 7 7 7 7 7 8 9 10 9 10 9 9 9 9
2 2 1 1 6 6 11 19 15 6 6 8 10 10 10 10 6 4 5 7 7 9 5 8 9 9 8 6 7 10 10 11 11 11 10 10 9 9 8 8 9 8 8 7 8 8 6 6 6 7 10 12 9 8 5 4 3 6 9 5 4 4 3 3 4 5 6 7 6 7 7 8 9 7 6 7 6 6 7 8 9 9 10 8 9 9
4 2 2 4 2 4 10 0 5 11 9 7 12 13 12 11 13 8 7 10 12 11 10 8 10 10 10 8 9 12 14 12 11 11 9 9 10 10 9 9 9 9 9 9 9 6 7 5 7 9 9 11 9 6 5 4 4 6 6 6 4 3 2 3 4 5 6 7 6 6 6 8 8 8 8 7 6 6 6 6 6 8 9 7 8 10
5 3 2 5 2 5 15 13 8 4 5 6 7 8 11 12 10 10 11 11 10 9 8 11 8 10 7 9 10 11 13 11 9 11 10 9 10 10 9 9 9 9 9 7 8 6 5 6 7 9 9 10 9 6 5 4 5 5 5 4 2 1 1 3 4 5 7 7 6 6 6 7 9 10 8 8 7 8 8 8 8 9 9 7 7 9
2 5 6 4 5 11 12 21 24 17 17 18 14 11 13 12 9 8 8 8 8 9 11 10 7 10 8 12 9 8 10 12 10 10 10 11 11 9 9 9 8 9 9 8 8 5 7 6 7 8 8 10 8 6 5 5 5 5 3 2 1 1 3 4 4 5 6 6 6 7 7 7 7 7 8 9 9 8 7 8 9 9 10 9 5 7
6 9 3 1 5 11 11 15 1 2 9 11 6 7 6 7 7 9 6 7 8 9 10 10 12 8 8 9 9 9 11 12 11 9 11 11 11 10 9 8 8 9 9 7 6 6 6 6 7 7 8 8 7 6 5 4 4 3 1 1 1 2 3 4 5 5 6 5 6 7 8 7 7 6 7 7 8 10 12 13 16 13 9 9 11 18
13 11 9 9 8 10 15 14 6 8 8 14 13 3 4 4 3 5 7 9 10 9 8 9 11 11 10 11 8 9 10 11 13 9 9 10 12 9 8 8 9 8 8 6 5 6 6 7 5 5 7 8 6 5 4 3 4 2 2 1 1 1 3 3 5 5 5 6 6 7 8 8 8 7 7 7 8 8 9 12 14 23 26 17 15 17
Wind_Direction
93 76 83 137 219 240 284 193 205 257 95 91 90 95 95 97 83 90 108 141 90 81 49 69 81 79 71 50 44 33 31 38 41 38 32 23 34 42 38 33 4 22 30 344 3 10 7 1 1 2 2 2 8 21 19 25 26 26 27 25 33 19 19 26 23 26 27 29 30 37 40 43 36 35 35 38 33 35 34 30 30 29 28 25 22 25
69 84 349 224 215 225 221 208 264 116 96 100 101 98 83 91 104 87 103 289 301 106 99 77 81 70 63 57 46 38 51 39 21 30 28 24 26 28 24 2 339 336 343 14 13 2 3 358 358 359 5 7 20 14 15 23 21 22 22 33 27 21 23 26 29 23 29 28 29 36 34 41 38 35 34 32 26 26 25 28 28 27 24 24 25 19
53 91 289 277 230 209 230 73 139 108 106 104 104 105 94 88 100 78 72 78 80 95 131 111 87 68 56 52 38 58 71 46 38 43 25 23 3 342 338 316 323 336 4 17 9 352 353 355 358 5 8 11 16 9 18 10 17 22 25 24 23 22 24 24 22 29 28 16 20 35 36 33 43 33 35 39 25 19 23 23 24 22 20 20 22 18
58 323 312 310 155 110 111 101 119 99 103 114 117 110 109 148 126 112 18 40 23 109 141 123 94 81 70 41 29 31 51 73 59 59 28 357 356 334 319 320 323 352 352 358 356 342 346 349 353 2 10 4 3 16 15 13 17 18 20 19 18 19 22 20 19 21 18 20 18 23 30 32 53 39 8 24 26 22 19 20 12 18 15 12 16 15
121 289 292 137 155 110 110 132 109 108 80 26 118 115 131 149 66 114 105 86 83 73 112 122 86 87 32 41 51 310 11 99 54 24 23 343 293 297 325 349 353 334 335 335 335 334 341 349 352 356 354 354 14 14 15 10 13 16 13 13 16 19 20 21 18 15 13 15 22 14 17 22 17 32 29 25 21 17 11 6 10 3 4 5 9 9
22 348 346 101 110 113 115 104 100 117 108 85 1 133 129 115 117 115 124 110 76 87 293 318 96 322 245 286 240 188 289 249 159 2 280 280 297 341 327 306 319 307 273 252 284 302 308 322 331 355 0 8 6 12 358 358 5 13 9 10 13 17 22 20 18 13 19 29 32 23 31 26 21 22 18 16 2 353 1 352 333 345 355 359 360 3
3 356 34 107 104 93 91 81 351 114 120 111 273 135 123 129 127 130 134 108 127 137 200 17 88 181 161 251 219 218 237 264 284 250 265 284 278 269 251 256 257 252 295 309 301 307 333 329 348 348 358 351 1 349 340 356 5 9 9 7 12 14 18 14 13 15 18 28 30 33 37 50 34 25 351 347 332 343 332 333 339 335 338 350 354 346
350 16 33 43 67 52 64 75 356 48 106 47 27 118 126 129 126 129 106 76 101 90 121 89 3 116 206 249 184 185 240 260 267 253 250 251 253 251 247 247 252 254 242 249 270 274 276 289 302 315 313 333 323 316 346 3 4 6 358 0 3 7 10 14 5 17 18 28 21 23 19 19 25 15 337 328 320 320 318 334 330 331 331 333 341 337
316 24 23 45 66 54 36 289 283 72 73 118 106 92 69 72 95 92 100 110 120 119 45 5 358 73 280 281 26 132 249 250 247 240 236 240 243 248 250 246 245 242 235 227 247 258 273 287 304 295 310 310 317 346 348 340 336 343 353 360 3 8 6 358 6 15 14 20 29 29 20 3 349 345 333 323 321 325 329 335 329 335 329 330 330 331
37 42 355 28 59 58 352 11 72 93 100 71 96 80 91 89 65 56 71 97 73 71 91 349 11 122 264 42 213 328 276 246 226 223 227 227 231 236 239 247 245 247 250 246 237 253 274 262 262 266 288 294 294 319 321 320 346 1 356 2 357 348 349 339 357 6 8 18 19 31 12 8 330 335 325 335 327 327 334 330 325 326 327 326 325 325
143 212 279 50 35 22 69 48 67 70 100 118 88 94 73 57 47 39 64 51 67 39 254 282 297 168 271 223 202 170 223 199 195 239 244 249 247 246 239 239 234 232 237 241 247 256 253 260 261 283 284 272 310 319 325 336 347 335 358 349 341 307 307 330 339 349 343 345 23 16 347 332 322 320 325 335 328 330 333 332 318 321 314 309 306 309
52 31 37 15 16 24 78 75 23 68 70 73 103 124 109 49 25 41 354 29 95 276 261 281 336 317 162 297 245 226 263 195 176 190 201 217 224 231 235 237 238 235 236 250 266 273 280 305 294 289 286 297 295 321 326 317 319 315 312 335 327 310 311 313 317 326 322 325 309 300 294 307 290 296 312 316 306 310 310 308 308 305 309 307 304 300
57 46 76 123 85 55 29 83 307 8 27 79 91 43 90 103 50 65 4 48 53 177 309 15 1 12 256 222 223 215 220 230 221 195 196 203 217 228 236 236 237 238 249 255 250 259 270 257 263 276 278 300 295 285 283 277 275 276 272 257 315 294 293 296 303 304 303 306 302 292 295 288 289 300 300 294 300 296 301 302 308 313 310 311 314 307
65 48 29 353 347 18 30 105 134 97 342 77 73 106 71 84 41 128 306 311 319 288 281 26 330 262 275 302 238 226 229 219 203 217 207 195 203 212 222 228 235 245 232 235 241 247 248 251 256 253 260 266 270 269 263 262 261 261 274 276 273 279 284 289 301 298 307 296 286 280 270 276 278 288 284 281 278 291 289 286 284 285 283 285 279 285
86 17 13 3 20 348 33 60 39 110 109 66 130 129 156 137 157 163 186 154 207 187 295 312 21 244 51 241 217 231 248 268 257 264 287 285 287 297 313 296 274 264 257 240 243 241 242 249 244 248 248 250 250 256 260 257 254 262 271 272 274 281 284 284 281 296 290 286 288 284 277 273 267 263 271 273 269 273 282 280 277 276 277 273 277 275
48 96 293 37 276 358 35 343 41 89 74 317 170 78 59 78 147 119 204 143 163 89 10 204 213 189 204 245 282 309 291 300 164 244 263 271 259 269 278 250 241 240 244 240 241 251 252 247 252 254 253 247 246 249 257 262 261 263 258 257 256 256 268 275 278 273 265 273 275 277 278 273 265 265 268 277 277 269 253 268 271 278 278 277 279 280
346 55 310 317 62 56 15 345 55 251 133 227 55 46 140 118 97 104 57 62 105 52 232 123 308 287 290 310 332 336 325 268 356 247 246 254 257 257 251 245 242 240 241 242 235 238 248 255 248 243 247 251 251 254 248 248 243 241 254 260 266 264 264 261 255 257 261 261 269 273 263 263 267 261 264 267 273 275 275 272 272 271 274 280 277 276
131 175 301 31 13 56 30 82 52 57 304 63 85 189 111 121 124 122 148 334 55 147 241 29 248 304 18 285 331 0 275 263 256 241 234 246 246 246 238 236 232 231 231 239 250 250 250 251 253 255 249 244 245 245 253 253 247 238 241 242 251 262 264 263 253 257 255 258 263 269 273 269 258 260 264 260 261 267 273 275 273 272 276 271 274 271
79 62 313 200 222 285 358 66 347 358 44 106 144 167 92 231 44 335 88 54 54 299 288 315 259 249 197 253 354 252 215 234 234 226 230 238 235 236 240 242 244 247 256 254 249 249 249 243 244 244 246 247 247 250 248 256 253 248 243 239 231 248 251 256 263 259 264 250 252 258 262 266 271 264 257 257 257 263 265 269 271 272 270 278 274 275
47 127 319 287 66 298 27 55 38 315 328 30 39 33 342 87 115 80 114 170 109 215 52 292 44 264 205 224 200 233 217 221 221 222 231 231 229 232 233 237 239 236 235 241 242 242 242 243 242 241 241 246 243 243 245 249 258 252 247 243 244 247 255 263 261 256 260 260 250 257 262 263 256 260 260 259 261 263 262 263 266 270 275 268 275 270
274 126 98 283 331 49 24 7 93 325 343 336 29 352 4 38 225 115 47 63 10 154 149 239 0 288 277 220 196 245 249 251 216 218 226 232 234 234 236 236 237 233 234 236 238 241 243 246 248 247 243 246 255 252 251 242 239 246 251 248 243 243 255 255 256 256 254 259 260 257 260 264 267 264 258 260 258 260 262 266 266 265 262 277 271 271
47 10 121 313 20 28 211 16 114 164 189 149 112 119 173 76 64 70 341 80 69 80 217 87 281 267 272 172 225 249 247 239 227 232 253 252 247 239 239 239 231 237 237 239 242 242 248 250 253 256 256 257 262 262 254 250 245 249 247 244 251 244 247 252 261 251 254 255 257 258 261 263 268 267 268 266 266 264 263 263 264 264 273 266 270 269
123 144 88 53 120 149 336 290 332 250 101 89 115 26 99 102 100 92 91 281 42 40 109 150 141 278 240 215 222 237 253 252 248 215 240 248 246 242 241 240 241 233 243 241 242 248 249 253 255 261 267 263 253 255 259 262 247 247 249 251 246 240 253 242 248 257 256 258 261 261 261 268 269 270 271 268 267 264 264 265 265 266 267 268 271 272
95 60 48 306 313 303 335 354 54 30 160 15 34 84 33 21 351 174 157 178 125 190 19 4 52 251 284 247 251 262 261 263 266 230 241 260 262 261 255 254 248 250 249 253 259 259 254 259 273 275 265 264 264 261 258 257 260 256 254 251 252 246 251 256 251 252 257 259 260 263 269 267 267 270 268 267 263 265 265 266 266 268 269 269 272 274
35 338 114 35 3 334 343 344 5 321 67 81 33 346 50 70 63 149 108 100 84 216 162 104 264 291 271 315 292 275 300 295 273 259 214 253 268 266 266 265 260 259 265 262 258 260 272 271 265 266 271 268 267 267 265 263 261 258 258 256 251 252 254 256 258 254 256 256 262 268 266 266 267 267 266 263 264 263 265 265 267 268 267 272 273 269
87 265 66 96 100 54 0 340 293 309 271 283 138 340 47 80 87 17 102 0 73 267 124 156 255 255 273 300 321 331 345 320 288 261 271 230 261 276 278 272 272 269 265 272 276 277 267 267 269 265 262 266 265 264 269 269 267 269 267 264 260 260 263 261 261 255 257 257 258 263 266 265 267 262 261 264 265 263 263 266 267 268 269 266 271 276
116 90 86 147 147 181 203 209 253 100 347 39 301 115 245 54 110 93 102 84 236 184 190 237 190 306 308 310 333 313 345 314 309 320 310 299 283 271 267 274 271 265 263 263 263 268 279 273 266 264 266 263 267 267 267 268 272 271 270 272 270 262 263 268 268 266 262 261 257 263 262 264 261 261 265 265 265 267 268 266 266 267 268 268 269 273
77 60 13 138 188 202 186 196 201 283 198 226 177 256 210 160 147 105 156 260 176 80 304 263 210 182 260 286 283 297 300 295 281 277 295 295 283 274 275 279 282 277 271 269 268 266 264 269 273 270 270 274 272 275 273 269 267 270 273 274 276 274 266 261 259 265 263 260 263 258 262 260 263 268 268 268 269 268 267 268 268 267 268 271 272 271
124 104 258 96 274 245 248 248 263 348 224 199 196 187 193 190 154 156 228 201 153 173 219 209 167 248 272 270 281 286 283 284 287 289 282 282 287 289 293 289 284 280 281 277 268 261 260 267 272 282 288 287 291 288 287 286 282 275 268 263 266 271 267 265 263 263 262 263 260 263 265 271 271 269 269 271 271 270 269 269 270 271 272 271 271 271
88 28 207 183 283 312 289 258 211 190 238 283 230 226 221 170 207 206 228 203 184 236 261 281 287 269 263 277 287 280 290 277 280 286 290 291 283 288 290 281 276 275 270 270 271 269 268 269 277 282 289 290 287 286 284 284 279 278 278 278 274 269 267 266 258 256 260 259 264 270 273 272 272 271 273 274 272 271 274 274 275 277 277 275 273 274
93 314 127 166 359 316 322 41 61 114 133 285 265 229 217 212 241 233 261 239 10 298 280 280 284 283 279 213 250 277 316 297 304 293 275 278 292 295 296 292 287 282 279 275 274 274 276 278 275 276 274 272 272 271 274 276 279 282 281 274 273 269 271 256 258 258 260 268 270 274 275 272 270 272 273 272 276 276 277 278 278 279 279 279 277 276
50 163 66 68 49 329 1 32 301 70 325 243 287 275 221 180 224 201 196 205 166 219 110 113 301 259 275 283 292 284 304 291 273 277 284 283 279 282 279 278 277 275 275 272 272 274 274 270 270 268 265 265 267 275 278 280 284 286 278 280 276 275 282 272 264 265 271 270 275 272 270 269 273 276 276 278 278 278 279 280 281 281 280 280 280 279
42 116 33 19 67 269 255 104 315 336 340 340 296 245 191 198 187 205 269 224 218 143 147 200 234 219 226 92 353 297 283 284 275 267 277 281 267 248 259 267 270 273 268 267 270 270 264 261 263 265 268 270 271 272 273 276 285 279 278 285 282 296 288 279 273 278 273 271 270 270 271 276 280 280 282 281 281 282 283 283 283 281 280 280 281 288
18 79 106 265 92 261 278 318 245 64 37 243 227 173 147 177 196 195 230 213 210 180 213 201 244 279 279 273 272 283 292 275 270 257 194 240 283 288 279 265 264 268 275 273 262 259 266 270 267 262 256 260 266 267 271 276 264 270 279 277 284 282 277 277 279 269 272 273 274 277 281 284 284 283 282 283 284 285 284 283 280 278 279 284 289 290
62 65 89 203 77 293 306 349 51 46 238 234 33 240 160 173 182 203 240 238 214 221 254 279 272 268 263 265 262 265 265 270 274 283 278 248 233 245 259 275 277 268 262 266 270 264 257 257 264 268 276 269 263 270 282 283 270 277 280 272 274 268 273 271 272 276 275 279 281 284 286 286 283 283 285 288 288 288 284 283 285 287 290 292 295 298
86 88 181 22 99 307 33 17 33 249 233 264 279 291 220 125 165 230 285 250 220 209 212 235 250 259 270 274 271 258 266 288 300 262 251 260 229 226 236 246 253 254 252 245 241 251 255 256 253 255 260 271 285 283 278 273 286 288 274 277 269 277 274 278 283 282 283 282 282 283 283 284 286 288 291 293 293 291 290 290 290 295 299 300 300 297
122 96 73 56 84 80 178 178 243 310 331 54 337 239 167 182 179 163 271 284 212 194 186 219 250 256 256 252 251 269 297 320 300 293 233 232 239 217 219 235 237 245 240 247 236 243 248 257 265 269 276 280 279 280 277 281 289 275 280 286 283 286 288 292 285 280 278 277 281 283 284 287 292 295 296 295 294 294 294 297 301 303 307 304 301 301
148 81 223 93 323 115 81 325 345 15 303 281 235 303 205 208 149 193 76 292 273 208 190 187 224 243 250 262 267 256 216 342 295 288 274 251 236 236 240 244 258 258 256 257 273 280 276 271 273 273 260 271 276 271 274 276 269 272 281 286 288 291 288 282 276 275 278 279 285 290 296 297 296 295 294 295 294 294 297 300 301 302 307 302 302 300
32 61 94 116 140 38 48 118 229 170 253 203 225 212 225 173 147 178 55 293 278 195 190 182 214 234 226 232 259 84 351 307 278 286 266 244 254 235 249 256 250 255 261 263 259 271 277 275 271 278 284 272 273 273 268 265 268 281 286 285 288 288 286 281 280 283 286 291 295 299 298 294 292 288 289 292 294 299 305 308 306 303 301 298 298 295
36 355 12 40 40 182 136 104 271 201 231 272 220 237 225 151 133 60 357 287 245 210 198 185 209 223 231 231 191 168 218 274 288 286 242 247 244 250 218 269 280 273 269 260 256 243 255 266 292 289 283 284 281 291 304 315 308 294 288 287 291 292 284 279 280 285 288 290 293 292 290 286 286 287 289 294 301 307 307 304 302 302 304 302 300 299
2 353 34 190 157 199 168 272 316 292 268 252 220 198 131 169 92 58 270 247 241 201 194 190 223 227 217 205 167 226 214 223 264 285 318 322 316 300 284 255 254 260 271 279 280 289 291 290 280 276 277 278 283 292 297 305 304 292 288 289 296 284 276 279 287 290 289 290 291 288 285 285 283 291 298 304 304 303 300 300 301 304 306 304 303 301
19 112 60 73 99 176 195 178 236 256 246 162 347 136 185 103 20 203 236 213 158 210 208 200 221 241 218 221 218 227 252 251 272 299 298 291 281 277 280 282 290 286 263 251 257 265 272 281 286 287 286 280 282 281 275 268 275 277 282 289 281 273 280 290 289 290 291 290 288 285 286 288 294 298 302 305 303 303 303 302 302 301 301 299 299 300
198 131 234 174 186 87 68 348 340 348 303 126 134 79 190 129 230 202 230 251 198 219 183 217 215 251 205 253 240 253 270 281 279 281 283 283 286 285 286 291 287 285 290 299 301 291 288 290 285 282 280 287 290 284 280 264 270 278 282 280 274 280 290 288 292 291 288 288 289 289 291 296 305 308 307 301 302 300 300 303 305 302 300 299 300 300
201 198 270 262 188 132 158 179 206 211 187 184 154 183 206 216 189 173 147 293 232 205 226 234 241 231 235 239 265 268 265 277 286 277 279 279 276 278 279 276 273 274 277 269 257 267 276 274 274 280 285 287 285 282 281 263 275 280 283 276 278 288 288 290 288 293 294 293 292 295 301 307 307 301 297 296 299 299 297 300 299 298 296 298 298 300
202 190 183 238 210 158 204 222 240 237 195 198 208 232 220 228 256 224 215 256 286 278 194 238 264 258 231 247 264 267 279 263 267 275 278 279 280 280 280 278 280 280 279 281 282 284 282 270 279 283 287 285 286 284 280 265 258 273 274 275 288 286 293 297 308 309 300 297 300 305 307 308 301 298 295 296 298 300 300 299 302 302 300 303 303 301
274 186 171 88 246 268 265 250 256 252 226 230 246 254 269 273 256 210 235 269 249 246 239 256 276 275 274 248 264 277 264 272 276 278 275 277 278 276 272 277 279 272 269 273 279 275 269 278 276 276 277 284 282 283 282 271 231 258 265 282 294 300 307 317 315 305 296 299 307 307 310 308 305 302 297 293 291 283 282 287 296 295 297 303 302 301
243 156 143 208 266 32 284 302 205 241 254 239 235 249 256 253 260 258 268 250 262 271 272 256 252 265 266 270 255 264 273 275 276 277 278 282 279 275 273 272 272 268 273 276 272 284 291 285 284 278 276 281 287 287 287 275 253 249 273 287 302 321 327 317 307 301 303 304 307 307 307 306 305 308 308 305 299 291 287 285 276 283 290 296 303 301
309 173 163 221 172 194 246 272 262 243 245 240 224 261 261 253 248 246 240 253 261 269 264 265 271 272 263 262 251 256 267 274 276 276 278 276 276 276 274 270 270 278 271 261 272 273 272 267 263 271 274 277 283 291 291 290 281 279 282 296 325 325 344 322 319 309 306 309 308 306 306 304 306 307 307 305 306 304 304 299 298 297 294 298 295 295
173 116 234 175 203 257 287 279 272 284 274 265 259 243 245 260 264 264 251 253 261 267 271 272 249 252 259 257 262 261 268 269 264 267 272 275 276 274 270 267 267 265 272 280 275 262 254 261 262 261 272 277 283 287 290 284 286 283 293 310 311 9 354 327 316 306 304 308 313 310 309 304 304 303 305 306 305 298 288 291 294 292 291 288 273 279
98 227 171 86 286 276 243 259 116 355 304 299 241 232 248 242 234 251 278 282 265 260 263 271 278 266 253 250 253 249 254 268 268 266 267 268 270 272 274 271 268 269 271 265 263 261 263 256 253 267 272 276 277 280 280 287 282 290 1 306 322 13 350 325 315 313 311 317 314 307 310 311 309 306 302 302 304 309 307 297 294 292 288 294 299 304
198 206 151 198 177 244 257 249 219 227 250 255 282 292 221 245 216 245 254 259 268 262 258 263 274 279 272 268 245 237 245 252 264 263 265 269 268 264 262 265 269 272 273 274 278 276 263 266 265 261 268 268 272 270 270 276 279 308 325 316 338 15 346 337 325 316 312 316 309 306 306 307 307 308 306 304 306 306 307 311 312 310 308 307 308 309